Regional Weather Roundup
Issued by NWS

Home | Current Version | Previous Version | Graphics & Text | Print | Product List | Glossary On
Versions: 1 2 3 4 5 6 7 8 9 10 11 12 13 14 15 16 17 18 19 20 21 22 23 24 25 26 27
000
ASUS45 KTFX 030210
RWRMT
MONTANA REGIONAL WEATHER ROUNDUP
NATIONAL WEATHER SERVICE GREAT FALLS MT
700 PM MST FRI DEC 02 2016

NOTE: "FAIR" INDICATES FEW OR NO CLOUDS BELOW 12000 FEET WITH NO
SIGNIFICANT WEATHER AND/OR OBSTRUCTIONS TO VISIBILITY.

MTZ001>007-043-030300-
WEST OF THE DIVIDE

CITY           SKY/WX    TMP DP  RH WIND       PRES   REMARKS
KALISPELL      LGT SNOW  32  28  85 S10       30.10F FOG     WCI  24
MISSOULA       CLOUDY    33  24  69 N5        30.17S
BUTTE          CLOUDY    28  11  48 W9        30.06F WCI  19
MULLAN PASS    MIX PCPN  21  19  92 VRB7      30.03F FOG     WCI  12
ANACONDA         N/A     30  10  43 S6        30.07S WCI  24
DEER LODGE       N/A     28  18  64 CALM      30.10S
EUREKA           N/A     36  27  69 SE14      30.05F WCI  27
HAMILTON         N/A     34  16  47 SE10      30.14S WCI  26
LIBBY            N/A     32  30  93 CALM      30.06F
RONAN            N/A     33  25  73 CALM      30.16F
$$

MTZ008-052>055-030300-
SOUTHWEST MONTANA

CITY           SKY/WX    TMP DP  RH WIND       PRES   REMARKS
BOZEMAN        CLOUDY    21  15  78 S9        30.07F WCI  11
DILLON         CLOUDY    29  11  47 S10       30.06F WCI  20
W YELLOWSTONE  CLOUDY    16  14  93 SW8       30.13F WCI   5
ENNIS          CLEAR     23  12  63 S15       30.13F WCI  10
THREE FORKS      N/A     31  31 100 SW9       30.05F WCI  23
TWIN BRIDGES     N/A     31   9  39 E10       30.05  WCI  22
$$

MTZ009-010-012-014-046-048-049-054-030300-
EAST SLOPES AND CENTRAL MONTANA

CITY           SKY/WX    TMP DP  RH WIND       PRES   REMARKS
CUT BANK       CLOUDY    33  20  58 W32G40    29.87F WCI  19
GREAT FALLS    CLOUDY    30  20  66 SW17      29.96F WCI  18
MALMSTROM AFB  CLOUDY    28  21  75 SW15      29.97F WCI  16
HELENA         CLOUDY    34  14  43 SW7       30.07F WCI  28
AUGUSTA        MOCLDY    31  18  57 W23G29    29.93S WCI  18
BOWMANS CRNR   CLOUDY    29  18  64 SW20      29.94S WCI  16
CHOTEAU          N/A     36  19  51 W20G26    29.93S WCI  25
CONRAD           N/A     29  27  92 CALM      29.94S
FAIRFIELD      CLOUDY    33  18  55 SW18G25   29.93F WCI  22
POWER          MOCLDY    29  20  69 SW13      29.92F WCI  19
RAYNESFORD     MOCLDY    30  17  58 SW12G17   29.96F WCI  21
ULM            MOCLDY    31  21  65 W8G20     29.98S WCI  24
$$

MTZ011-013-016-021-045-047-050-051-030300-
NORTH CENTRAL MONTANA

CITY           SKY/WX    TMP DP  RH WIND       PRES   REMARKS
HAVRE          CLEAR     32  21  64 SW21      29.92F WCI  20
LEWISTOWN      CLEAR     24  15  68 SW12      29.95F WCI  13
N BAR RANCH      N/A     25  10  54 CALM      29.95F
CHINOOK          N/A     32  19  59 S7        29.93F WCI  26
DENTON           N/A     22  18  83 W3G24     29.93F
GEYSER         MOCLDY    27  16  63 W13       29.94F WCI  16
GRASS RANGE      N/A     25  16  68 SW9       29.92F WCI  16
JUDITH GAP       N/A     24  14  65 SW16G28   29.95F WCI  11
ROY              N/A     26  17  66 MISG      29.94F
STANFORD         N/A     24  14  65 W8        29.94S WCI  15
WINIFRED         N/A     27  18  68 MISG      29.94F
$$

MTZ017>020-022>027-061-062-030300-
NORTHEAST MONTANA

CITY           SKY/WX    TMP DP  RH WIND       PRES   REMARKS
GLASGOW        CLEAR     24  21  88 SE9       29.99F WCI  14
JORDAN           N/A     25  19  78 CALM      30.00F
SIDNEY         CLEAR     21  20  96 SW9       30.09F WCI  11
WOLF POINT     CLEAR     30  25  81 SW6       30.03F WCI  24
PLENTYWOOD       N/A     27  27 100 S8        30.04F WCI  18
POPLAR           N/A     28  25  86 S6        30.05F WCI  22
$$

MTZ028>42-056>058-030300-
SOUTHCENTRAL AND SOUTHEAST MONTANA

CITY           SKY/WX    TMP DP  RH WIND       PRES   REMARKS
BAKER          CLEAR     21  18  88 S5        30.10F
BILLINGS       CLEAR     34  18  52 W10       30.02F WCI  26
LIVINGSTON     CLEAR     30  13  49 W23G36    30.01F WCI  17
MILES CITY     CLEAR     28  24  85 S12       30.06F WCI  18
BIG TIMBER     CLEAR     28  14  54 W22       30.01F WCI  15
FORSYTH          N/A     34  23  64 S8        30.05F WCI  27
HARLOWTON        N/A     24  12  60 NW8       29.98F WCI  16
LAUREL           N/A     31  11  43 W8        30.00  WCI  24
ROUNDUP          N/A     29  10  44 S7        29.92F WCI  22
$$

REGIONAL REPORTS...DAKOTAS

CITY           SKY/WX    TMP DP  RH WIND       PRES   REMARKS
WILLISTON      CLEAR     27  24  89 S5        30.09F
MINOT          CLOUDY    28  25  88 SE3       30.13F
DICKINSON      CLEAR     21  19  92 S10       30.10F WCI  10
BEACH            N/A     18  18 100 S8        30.12F WCI   7
CROSBY         CLOUDY    28  28 100 S10       30.09F WCI  19
TIOGA          CLOUDY    28  28 100 S12       30.09F WCI  18
WATFORD CITY     N/A     25  23  93 S7        30.10F WCI  17
BISMARCK       PTCLDY    22  19  89 SE9       30.21F WCI  12
GRAND FORKS    CLOUDY    31  23  72 SW5       30.26F
FARGO          CLOUDY    29  19  66 CALM      30.30S
BUFFALO SD       N/A     27  25  92 S6        30.06F WCI  20
RAPID CITY     CLEAR     24  21  88 S3        30.18F
$$

REGIONAL REPORTS...WYOMING/IDAHO/WASHINGTON

CITY           SKY/WX    TMP DP  RH WIND       PRES   REMARKS
GILLETTE       CLEAR     22  19  89 S10       30.09F WCI  11
SHERIDAN       CLEAR     22  15  75 S6        30.05F WCI  14
BUFFALO WY     CLEAR     26  16  65 SW5       30.05F
CODY           CLEAR     31  10  41 W14G26    30.04F WCI  21
YELLOWSTONE LA   N/A      5   3  91 NW3       30.11S
IDAHO FALLS    CLOUDY    24  18  77 S10       30.27F WCI  14
SALMON         CLOUDY    30  18  59 CALM      30.16F
BOISE          CLOUDY    34  24  67 SE7       30.33F WCI  28
SPOKANE        LGT SNOW  34  32  92 S13G22    30.09F FOG     WCI  25
$$

REGIONAL REPORTS...ALBERTA

CITY           SKY/WX    TMP DP  RH WIND       PRES   REMARKS
EDMONTON       CLOUDY    27  23  86 S6        29.68F WCI  20
CALGARY        MOCLDY    39  18  41 SW8       29.68F
LETHBRIDGE     MOCLDY    39  19  45 W33G45    29.76F WCI  27
MEDICINE HAT   MOCLDY    37  23  56 S17G26    29.77F WCI  28
WATERTON GATE    N/A     30  21  69 SW29G44     N/A  WCI  15
CARDSTON         N/A     36  19  51 W9          N/A  WCI  29
MILK RIVER       N/A     37  23  56 W22G29      N/A  WCI  27
$$

REGIONAL REPORTS...SASKATCHEWAN

CITY           SKY/WX    TMP DP  RH WIND       PRES   REMARKS
SWIFT CURRENT  CLEAR     21  21 100 S14       29.86F WCI   8
REGINA         CLOUDY    27  23  86 S12       30.01F WCI  16
SASKATOON      CLOUDY    27  21  80 S13G20    29.97F WCI  16
CYPRESS HILLS    N/A     23  21  93 S7          N/A  WCI  15
VAL MARIE        N/A     21  18  86 SW6         N/A  WCI  14
ASSINIBOIA       N/A     28  27  93 S12         N/A  WCI  18
$$




USA.gov is the U.S. government's official web portal to all federal, state and local government web resources and services.